Date,TemperatureHighF,TemperatureAvgF,TemperatureLowF,DewpointHighF,DewpointAvgF,DewpointLowF,HumidityHigh,HumidityAvg,HumidityLow,PressureMaxIn,PressureMinIn,WindSpeedMaxMPH,WindSpeedAvgMPH,GustSpeedMaxMPH,PrecipitationSumIn
2013-4-1,47.0,41.4,32.7,44.1,32.7,16.8,96,72,52,29.97,29.79,22,6,24,0.06
2013-4-2,44.6,34.6,27.0,20.0,13.7,9.4,53,42,31,30.09,29.97,22,8,24,0.00
2013-4-3,48.5,34.6,22.9,18.7,12.1,6.3,65,40,28,30.27,30.09,26,6,28,0.00
2013-4-4,45.9,33.2,24.5,29.2,16.9,6.3,85,53,32,30.27,29.97,11,2,12,0.27
2013-4-5,59.4,43.6,33.1,39.0,28.9,21.5,98,62,31,30.03,29.88,31,5,34,0.10
2013-4-6,67.2,46.8,27.1,28.9,23.7,19.8,79,44,23,30.18,30.03,14,3,15,0.00
2013-4-7,72.0,54.1,36.8,40.2,29.8,19.8,59,40,28,30.15,30.00,21,4,22,0.00
2013-4-8,74.4,53.5,41.4,44.7,37.3,32.9,78,56,32,30.12,30.03,18,2,19,0.00
2013-4-9,80.9,73.9,60.0,50.5,45.4,41.7,52,37,32,30.12,30.03,19,5,20,0.00
2013-4-10,86.8,70.5,52.5,53.8,46.1,40.0,68,45,24,30.09,29.91,20,5,22,0.00
2013-4-11,82.2,67.8,51.4,52.0,45.5,39.8,77,47,23,29.94,29.73,15,3,16,0.00
2013-4-12,70.9,61.3,46.4,60.2,47.5,29.5,97,65,29,29.88,29.65,23,6,25,0.80
2013-4-13,65.5,53.0,43.3,35.0,29.6,22.1,60,42,26,30.00,29.85,28,8,31,0.00
2013-4-14,72.6,58.1,38.3,39.6,31.0,23.2,69,38,24,30.09,30.00,19,3,21,0.00
2013-4-15,63.7,54.2,50.5,51.7,47.7,33.9,94,80,33,30.21,30.03,12,1,13,0.48
2013-4-16,80.5,64.4,54.2,57.0,53.0,49.8,96,70,37,30.27,30.12,25,3,27,0.09
2013-4-17,77.0,65.4,57.4,63.0,55.8,49.1,98,75,43,30.24,30.12,9,2,10,0.09
2013-4-18,76.6,66.2,57.5,61.5,54.2,48.1,92,67,47,30.15,29.97,18,3,20,0.00
2013-4-19,68.3,59.4,43.5,61.2,51.2,31.0,98,75,56,29.97,29.67,30,6,33,0.49
2013-4-20,55.9,43.6,34.9,33.6,24.3,19.2,70,47,33,30.27,29.88,27,9,30,0.00
2013-4-21,63.1,45.3,30.7,33.0,24.8,19.2,77,47,27,30.41,30.27,12,3,13,0.00
2013-4-22,65.5,48.6,32.7,31.0,24.4,18.3,74,41,21,30.41,30.24,12,2,13,0.00
2013-4-23,73.1,53.1,34.0,40.6,31.4,21.9,78,46,26,30.27,30.03,14,3,15,0.00
2013-4-24,75.3,57.2,43.1,52.0,42.8,34.5,90,61,34,30.12,29.88,34,6,37,0.02
2013-4-25,63.5,47.2,34.6,34.9,27.0,21.1,73,48,25,30.29,30.12,24,6,26,0.00
2013-4-26,69.0,50.7,32.0,34.9,27.6,21.1,78,44,26,30.38,30.27,14,3,16,0.00
2013-4-27,70.9,55.3,41.6,40.1,34.0,24.4,69,46,28,30.32,30.21,16,3,18,0.00
2013-4-28,56.2,52.4,49.9,49.8,46.1,38.4,98,80,52,30.21,30.06,14,2,15,0.37
2013-4-29,69.4,56.3,49.2,55.2,50.5,47.9,98,83,50,30.06,29.97,10,2,10,0.01
2013-4-30,77.6,66.6,55.0,55.9,49.9,47.2,85,56,39,30.21,30.03,10,3,10,0.00